Regional Weather Roundup
Issued by NWS

Home | Current Version | Previous Version | Graphics & Text | Print | Product List | Glossary Off
Versions: 1 2 3 4 5 6 7 8 9 10 11 12 13 14 15 16 17 18 19 20 21 22 23 24 25 26 27 28 29 30 31 32 33 34 35 36 37 38 39 40 41 42 43 44 45 46 47 48 49 50

000
ASUS43 KMKX 281411
RWRWI

WISCONSIN REGIONAL WEATHER ROUNDUP
NATIONAL WEATHER SERVICE MILWAUKEE/SULLIVAN WI
900 AM CDT FRI AUG 28 2015

NOTE: "FAIR" INDICATES FEW OR NO CLOUDS BELOW 12,000 FEET WITH NO
SIGNIFICANT WEATHER AND/OR OBSTRUCTIONS TO VISIBILITY.

WIZ001-002-006>008-014>016-023>028-281500-
NORTHWEST WISCONSIN

CITY           SKY/WX    TMP DP  RH WIND       PRES   REMARKS
SUPERIOR ARPT  CLOUDY    63  59  87 SW7       29.98S
ASHLAND        PTSUNNY   66  62  87 SW8       29.99F
HAYWARD        PTSUNNY   64  60  87 S10       30.02S
SIREN          PTSUNNY   67  62  84 SW9       30.01S
CUMBERLAND     PTSUNNY   61  59  94 SW5       30.05R
RICE LAKE      PTSUNNY   63  60  88 CALM      30.06R
CHETEK         PTSUNNY  N/A N/A N/A S3        30.05S
LADYSMITH      PTSUNNY   63  60  89 S8        30.07S
EAU CLAIRE     CLOUDY    64  59  83 S9        30.06R
MENOMONIE      CLOUDY    63  61  93 SE3       30.06R
NEW RICHMOND   CLOUDY    64  62  93 S5        30.04S
OSCEOLA        CLOUDY    64  64 100 S3        30.06S
$$

WIZ003>005-009-010-017-018-281500-
NORTH CENTRAL WISCONSIN

CITY           SKY/WX    TMP DP  RH WIND       PRES   REMARKS
MANITOWISH WTR CLOUDY    63  60  91 SW10      30.04F
ARBOR VITAE    PTSUNNY   63  59  87 SW9       30.05F
WOODRUFF       PTSUNNY   63  59  87 SW9       30.05F
RHINELANDER    PTSUNNY   63  58  83 SW8       30.08S
EAGLE RIVER    PTSUNNY   64  58  82 SW7       30.06S
LAND O LAKES   MOSUNNY   64  59  82 SW6       30.06S
PHILLIPS       PTSUNNY   61  58  91 S9        30.05S
TOMAHAWK       CLOUDY    61  58  90 S3        30.08R
MEDFORD        PTSUNNY   62  59  91 S7        30.08S
MERRILL        PTSUNNY   63  60  88 CALM      30.08S
$$

WIZ029-030-035-036-043>047-281500-
CENTRAL WISCONSIN

CITY           SKY/WX    TMP DP  RH WIND       PRES   REMARKS
WAUSAU         PTSUNNY   64  59  83 S5        30.07S
MOSINEE        MOSUNNY   61  61 100 S7        30.10R
MARSHFIELD     CLOUDY    63  57  81 S7        30.09R
STEVENS POINT  CLOUDY    62  57  82 S9        30.10R
WAUPACA        PTSUNNY   64  60  88 S6        30.11S
WAUTOMA        PTSUNNY   64  59  84 CALM      30.11S
WISC RAPIDS    CLOUDY    64  57  78 S9        30.11R
CAMP DOUGLAS   CLOUDY    63  63 100 SE3       30.08S
$$

WIZ011>013-019>022-031-037>040-048>050-281500-
NORTHEAST WISCONSIN

CITY           SKY/WX    TMP DP  RH WIND       PRES   REMARKS
ANTIGO         PTSUNNY   62  58  89 SW7       30.09S
SHAWANO        PTSUNNY   65  59  82 SW3       30.10S
OCONTO         MOSUNNY   64  60  88 S6        30.10S
STURGEON BAY   MOSUNNY   63  55  77 SW8       30.13F
GREEN BAY      PTSUNNY   64  59  83 S7        30.12S HAZE
MANITOWOC      PTSUNNY   61  56  83 MISG      30.13F
APPLETON       PTSUNNY   63  55  77 S9        30.10S
CLINTONVILLE   PTSUNNY   63  59  88 S6        30.10S
OSHKOSH        PTSUNNY   63  56  78 S8        30.11F
$$

WIZ032>034-041-042-053>061-281500-
SOUTHWEST WISCONSIN

CITY           SKY/WX    TMP DP  RH WIND       PRES   REMARKS
LA CROSSE      LGT RAIN  65  61  87 S3        30.08R
SPARTA         LGT RAIN  64  57  76 S3        30.09S
VIROQUA        CLOUDY    62  62 100 CALM      30.10R
BOSCOBEL       CLOUDY    63  60  90 E3        30.08F
PRAIRIE DU CHI CLOUDY    64  58  80 CALM      30.07S
PLATTEVILLE    CLOUDY    62  60  94 SE5       30.10S
$$

WIZ056-057-062-063-064-067-068-281500-
SOUTH CENTRAL WISCONSIN

CITY           SKY/WX    TMP DP  RH WIND       PRES   REMARKS
REEDSBURG      CLOUDY    61  58  91 CALM      30.10R
BARABOO/DELLS  CLOUDY    62  57  83 S5        30.11S
LONE ROCK      CLOUDY    62  59  90 E5        30.10S
MINERAL POINT  CLOUDY    63  59  88 S5        30.10S
MADISON        CLOUDY    62  56  80 S9        30.11F
MIDDLETON      CLOUDY    63  57  82 S6        30.11F
WATERTOWN      PTSUNNY   63  62  98 S5        30.13S
MONROE         CLOUDY    61  57  88 S6        30.11F
JANESVILLE     PTSUNNY   64  61  88 VRB6      30.13S
$$

WIZ051-052-058>065-066-070>072-281500-
SOUTHEAST WISCONSIN

CITY           SKY/WX    TMP DP  RH WIND       PRES   REMARKS
MILWAUKEE      PTSUNNY   67  59  75 S6        30.14F
WAUKESHA       SUNNY     63  57  82 S3        30.15S
MILWAUKEE/TIMM SUNNY     66  55  68 CALM      30.14F
RACINE         MOSUNNY   68  58  70 S5        30.15F
BURLINGTON     PTSUNNY   62  58  88 CALM      30.14S
KENOSHA        MOSUNNY   67  59  75 S6        30.14F
FOND DU LAC    MOSUNNY   65  58  78 S6        30.13S
SHEBOYGAN      PTSUNNY   64  59  83 SW7       30.13S
WEST BEND      FAIR      64  55  72 CALM      30.14S
JUNEAU         FAIR      62  57  84 S7        30.14S
$$

LSZ147-162-281500-
LAKE SUPERIOR

STATION/POSITION TIME  TEMP    WIND        PRES    WAVE
                       AIR SEA DIR/SP/G            HT/PER
                 (UTC) (F)     (DEG/KT/KT) (MB)    (FT/S)
W MID LAKE BUOY  1350   58 55  200/  8/ 10 1014.8F   0
DEVILS ISLAND    1400   62     220/  6/  8 1014.8F
PORT WING        1340   65     200/  7/  9 1015.2S
SAXON HARBOR     1300   66     200/  5/ 10 1015.2
$$

LMZ867-665-643>646-281500-
LAKE MICHIGAN

STATION/POSITION TIME  TEMP    WIND        PRES    WAVE
                       AIR SEA DIR/SP/G            HT/PER
                 (UTC) (F)     (DEG/KT/KT) (MB)    (FT/S)
CHAMBERS ISLAND  1300   62     190/  4/ 10 1019.3F
S GREEN BAY BUOY 1400   63     190/ 12/ 14 1020.6F
N MID LAKE BUOY  1350   62 64  210/ 16/ 17 1019.2F   3/ 5
NORTHPORT PIER   1300   63     170/  3/  5 1019.3F
SISTER BAY       1319   68     200/ 10/ 12   N/A
ALGOMA LAKESHORE 1344             CALM       N/A
KEWAUNEE LAKESHO 1300   51     180/  3/  4 1019.2S
SHEBOYGAN LAKESH 1400   54     160/  7/  8 1020.7F
PORT WASHINGTON  1300   53      CALM  /  2 1021.3S
ATWATER BUOY     1400   53 47   CALM  /  2 1021.9F
MILWAUKEE LAKESH 1300   58     130/  3/  4   N/A
S MID LAKE BUOY  1350   67 67  180/ 10/ 10 1020.6F   2/ 4
KENOSHA   LAKESH 1400   60     170/  4/  4 1020.7S
$$

TC  - TEMPERATURE IN CELSIUS
VSB - VISIBILITY IN STATUTE MILES
WCI - WIND CHILL INDEX
HX  - HEAT INDEX




USA.gov is the U.S. government's official web portal to all federal, state and local government web resources and services.